Presure
229 218 145 194 180 230 227 106 110 214 214 232 205 122 135 89 165 125 108 94 117 141 145 154 149 160 155 156 154 150 154 181 187
264 237 257 252 181 180 83 231 202 134 130 192 200 211 205 163 158 97 171 91 112 95 103 141 165 117 136 149 149 160 154 162 169
235 202 246 187 212 199 199 206 218 134 133 219 205 221 208 199 194 205 193 194 146 97 125 90 129 92 97 154 128 148 137 142 150
215 182 205 223 204 210 217 177 200 185 171 231 227 228 112 237 177 189 202 186 214 187 104 87 93 91 96 94 96 132 103 160 160
123 121 122 135 221 190 217 210 220 214 201 192 201 211 236 92 202 202 203 83 213 198 193 202 205 128 182 176 100 144 160 153 124
180 137 118 124 123 146 183 215 142 203 195 179 218 208 203 207 192 159 151 199 128 145 209 214 204 194 215 201 182 151 177 115 96
120 133 111 142 121 128 128 166 123 165 157 128 132 153 178 214 184 172 155 208 199 200 204 157 103 166 132 142 214 213 204 204 185
170 133 141 129 153 119 183 117 125 163 182 118 152 162 189 243 243 228 247 142 123 215 144 206 196 228 214 213 211 220 195 208 209
161 149 171 128 143 143 129 156 138 107 129 135 183 165 118 112 177 123 158 147 153 233 133 279 265 191 254 202 171 123 220 201 226
141 114 145 148 172 169 151 137 134 153 126 160 113 125 141 126 112 126 198 206 121 150 201 150 119 207 175 117 176 271 274 185 135
143 141 138 140 139 178 127 142 160 143 127 132 127 140 154 147 123 144 131 109 183 130 108 146 128 202 117 114 161 123 218 174 163
156 158 157 128 151 141 127 136 157 154 181 130 176 149 105 100 100 134 143 110 136 152 119 124 118 120 136 124 110 198 146 190 141
150 112 138 167 168 179 161 183 133 151 136 171 173 163 141 150 151 141 137 143 119 138 204 137 151 163 160 200 111 131 135 136 126
139 155 167 144 156 169 174 187 192 191 187 173 127 170 165 123 174 146 161 134 141 128 160 168 171 177 199 158 181 162 205 155 165
159 167 146 161 129 135 146 167 167 162 173 167 146 149 132 173 143 165 150 132 137 136 147 151 156 183 172 165 136 135 134 138 135
122 127 127 188 179 112 167 169 164 157 151 151 157 161 165 175 131 133 139 118 122 146 141 142 140 131 151 123 98 175 109 150 163
144 136 164 119 125 180 137 125 151 157 162 156 135 146 155 138 174 149 141 125 146 134 144 139 142 124 182 143 127 165 182 210 219
145 147 116 138 136 125 135 154 135 170 152 172 133 128 137 135 135 130 122 123 140 119 124 126 142 138 166 139 155 113 143 216 218
153 133 147 166 172 180 169 123 131 141 163 155 155 156 122 119 125 125 126 127 118 134 111 123 120 142 142 179 198 155 208 211 217
144 132 126 137 157 162 154 125 168 165 123 158 149 117 119 112 116 113 114 117 123 109 162 116 134 171 172 200 200 206 214 208 209
Wind_Speed
28 22 24 24 31 32 37 25 28 41 46 50 53 34 35 20 51 32 25 19 28 36 33 37 44 41 38 43 39 39 41 50 55
16 21 26 36 30 31 26 32 30 33 33 40 43 50 53 46 44 26 53 24 31 24 27 41 51 32 42 40 41 44 42 47 47
9 7 11 24 24 27 25 23 24 25 29 37 43 52 52 51 51 55 56 58 45 31 39 27 40 27 27 47 37 45 43 44 46
6 10 8 17 26 25 21 27 28 26 29 31 40 50 31 47 46 51 54 53 60 58 34 28 30 30 30 31 31 44 32 54 54
23 27 25 10 15 18 20 26 23 25 31 32 34 34 44 32 45 48 49 27 52 65 62 64 59 47 67 65 36 52 57 51 41
13 23 31 22 24 20 15 15 18 23 26 27 31 38 42 44 46 42 45 51 39 38 51 56 65 69 63 70 68 54 67 45 38
29 29 37 21 31 22 20 17 24 23 22 23 22 25 30 41 37 39 38 48 52 52 55 51 43 53 44 48 65 69 74 77 61
23 26 30 23 32 32 16 38 38 21 21 38 30 27 29 42 45 44 53 32 31 46 36 51 57 59 62 62 65 61 63 67 67
29 28 26 30 29 37 28 30 29 43 33 26 21 29 40 44 33 31 34 35 40 45 36 47 49 44 59 59 53 42 63 66 69
28 39 32 33 28 32 42 36 38 32 32 30 42 40 33 35 46 32 40 36 40 35 41 38 39 38 42 46 40 47 48 46 45
37 33 32 36 36 29 36 34 39 39 39 39 37 40 37 39 40 40 45 50 35 39 48 40 40 45 49 52 45 44 48 49 51
39 39 38 37 40 36 36 35 40 36 31 38 33 42 55 49 46 44 47 53 45 41 45 44 53 49 49 48 56 51 54 52 50
40 38 42 41 40 36 43 36 39 44 41 37 37 42 43 50 51 52 51 51 49 47 41 55 50 51 55 49 58 53 54 47 52
44 46 47 44 45 43 39 38 38 39 39 39 45 42 43 54 39 49 44 47 46 51 43 43 45 49 48 57 55 54 50 57 59
49 49 47 47 48 47 47 45 43 45 45 44 53 48 51 43 47 47 50 51 54 51 52 51 49 49 51 55 57 62 61 66 61
54 53 53 48 48 51 50 49 50 52 53 55 51 48 50 47 57 59 61 53 56 57 59 59 60 55 54 64 68 60 64 67 60
61 58 55 57 59 52 57 57 55 55 55 57 61 60 54 56 53 56 61 61 60 63 62 65 63 70 57 66 74 63 65 61 61
66 63 58 62 62 63 62 59 62 57 61 55 65 63 66 66 67 66 62 64 68 64 68 70 68 69 64 71 68 65 74 62 61
69 67 67 63 63 64 64 68 68 66 62 64 64 64 64 63 64 67 69 70 66 72 62 71 74 73 73 67 63 71 63 65 66
74 72 71 70 70 68 71 71 67 67 70 68 71 67 68 67 67 64 66 69 73 65 70 72 78 72 71 67 67 68 67 68 68
Wind_Direction
229 223 249 233 214 233 224 244 230 224 227 235 228 233 230 231 235 238 238 229 239 238 247 253 247 253 252 252 255 254 258 256 254
232 231 235 227 220 223 260 233 224 232 234 230 229 233 232 236 237 233 241 228 239 232 233 240 250 240 239 247 251 256 256 263 262
188 220 229 209 212 212 208 212 226 235 255 235 241 241 236 235 236 243 243 245 243 241 241 235 245 234 237 252 245 247 245 247 253
159 209 203 203 209 203 218 231 217 224 232 243 240 242 252 248 239 237 247 239 251 245 243 246 242 243 242 242 240 247 243 253 254
210 211 211 238 207 213 225 229 236 230 228 227 224 234 242 263 239 239 242 259 249 245 244 249 252 246 249 247 246 249 252 252 246
191 213 222 220 217 232 225 229 242 240 238 233 242 232 230 234 238 246 248 241 256 258 248 249 249 251 257 253 250 252 252 247 246
234 249 238 224 221 234 222 222 228 240 241 227 232 242 247 245 239 238 237 251 245 245 245 250 256 253 257 252 256 258 257 260 260
245 251 255 250 227 236 254 228 229 231 230 230 234 239 242 251 254 255 257 246 233 256 251 254 257 256 252 252 254 257 257 257 257
244 254 250 238 258 251 249 232 259 244 249 255 243 240 232 237 248 240 252 252 245 256 247 262 261 257 261 260 257 250 259 259 259
254 245 248 254 252 250 243 241 246 246 251 238 255 260 245 249 237 249 248 260 246 256 261 253 250 259 253 252 260 264 263 260 261
254 258 254 256 243 251 255 249 252 253 255 261 257 263 245 250 257 258 248 249 259 254 263 252 257 264 246 249 260 257 266 263 264
262 259 255 249 263 247 247 259 249 260 260 254 255 256 253 259 262 263 256 247 267 255 256 256 256 269 265 255 255 268 264 266 266
259 249 251 254 252 254 257 258 256 259 262 260 257 255 260 252 252 260 260 257 261 265 267 258 259 268 264 269 264 270 270 259 260
258 260 260 256 258 257 256 261 262 263 262 257 258 255 256 258 264 258 260 263 264 265 266 271 272 268 265 266 270 267 272 263 267
256 260 260 260 258 255 258 257 255 252 260 254 255 259 267 260 250 255 253 263 260 267 261 261 265 269 267 269 274 263 265 264 268
257 257 259 264 262 259 261 262 258 254 254 250 251 254 263 263 266 266 260 268 263 252 259 258 264 265 260 280 262 269 254 265 265
258 258 262 260 260 266 261 261 257 257 260 256 257 253 263 262 266 265 261 266 257 262 259 261 265 276 272 260 275 271 275 281 282
259 260 255 258 257 258 260 261 258 265 257 265 255 256 256 257 258 261 265 264 258 271 268 268 268 266 270 264 273 278 275 282 280
261 258 260 263 266 270 266 259 259 258 263 260 259 260 258 260 262 262 263 263 268 262 274 266 269 266 266 276 285 269 285 284 283
259 258 258 260 261 262 261 258 266 265 258 262 256 259 259 262 263 265 266 266 266 271 272 269 268 276 275 286 286 288 287 284 283